This is the latest recevied weather packets stored in our database for station/object W5ITZ. If no packets are shown the sender has not sent any weather packets the latest 10 day(s).
| Time | Temp. | Humidity | Pressure | Rain* | Wind** | Luminosity | Snow |
|---|---|---|---|---|---|---|---|
| 1777572400 | 27.78° C | 74% | 1010.2 hPa | 0 mm | - | 1011 W/m² | - |
| 1777572097 | 27.78° C | 76% | 1010.4 hPa | 0 mm | - | 975 W/m² | - |
| 1777571791 | 27.22° C | 74% | 1010.8 hPa | 0 mm | - | 670 W/m² | - |
| 1777571488 | 26.67° C | 76% | 1010.6 hPa | 0 mm | - | 488 W/m² | - |
| 1777571185 | 26.67° C | 75% | 1011 hPa | 0 mm | - | 370 W/m² | - |
| 1777570880 | 27.22° C | 75% | 1011.2 hPa | 0 mm | - | 319 W/m² | - |
| 1777570576 | 27.22° C | 76% | 1011.2 hPa | 0 mm | - | 307 W/m² | - |
| 1777570274 | 26.67° C | 76% | 1011.1 hPa | 0 mm | - | 361 W/m² | - |
| 1777569969 | 27.22° C | 75% | 1011 hPa | 0 mm | - | 340 W/m² | - |
| 1777569665 | 26.67° C | 76% | 1011.2 hPa | 0 mm | - | 473 W/m² | - |
| 1777569361 | 26.11° C | 78% | 1010.9 hPa | 0 mm | - | 767 W/m² | - |
| 1777569058 | 26.11° C | 78% | 1011 hPa | 0 mm | - | 459 W/m² | - |
| 1777568754 | 26.67° C | 79% | 1011 hPa | 0 mm | - | 808 W/m² | - |
| 1777568452 | 26.11° C | 79% | 1010.9 hPa | 0 mm | - | 747 W/m² | - |
| 1777568149 | 25.56° C | 80% | 1011 hPa | 0 mm | - | 602 W/m² | - |
| 1777567845 | 25.56° C | 81% | 1010.8 hPa | 0 mm | - | 649 W/m² | - |
| 1777567541 | 25° C | 82% | 1010.9 hPa | 0 mm | - | 446 W/m² | - |
| 1777567239 | 25° C | 80% | 1011 hPa | 0 mm | - | 479 W/m² | - |
| 1777566937 | 25° C | 82% | 1011 hPa | 0 mm | - | 497 W/m² | - |
| 1777566635 | 24.44° C | 82% | 1011.1 hPa | 0 mm | - | 449 W/m² | - |
| 1777566332 | 24.44° C | 81% | 1011.5 hPa | 0 mm | - | 416 W/m² | - |
| 1777566029 | 25° C | 81% | 1011.5 hPa | 0 mm | - | 371 W/m² | - |
| 1777565725 | 24.44° C | 82% | 1011.5 hPa | 0 mm | - | 591 W/m² | - |
| 1777565421 | 24.44° C | 82% | 1011.4 hPa | 0 mm | - | 362 W/m² | - |
| 1777565118 | 24.44° C | 83% | 1011.5 hPa | 0 mm | - | 449 W/m² | - |
* Rain latest hour (hover to see other rain measurements)
** Current wind speed in m/s (hover to see current wind gust speed)